Location: �couen
(49.0206°N, 2.3831°E)
Time: 19:50:07
(UTC+00:00)

Cosmos 2227 - Pass Details

Date: 03 June 2022
Orbit: 833 x 863 km, 71.0° (Epoch: 25 June)

Event Time Altitude Azimuth Distance (km) Brightness Sun altitude
Rises 20:53:48 0° 324° (NW) 3,449 9.8 -8.7°
Reaches altitude 10° 20:56:34 10° 313° (NW) 2,510 8.3 -9.0°
Maximum altitude 21:01:24 28° 256° (WSW) 1,557 5.9 -9.4°
Drops below altitude 10° 21:06:12 10° 199° (SSW) 2,495 6.3 -9.9°
Enters shadow 21:08:42 - 189° (S) 3,339 6.9 -10.2°
